Regional Weather Roundup
Issued by NWS

Home | Current Version | Previous Version | Text Only | Print | Product List | Glossary Off
Versions: 1 2 3 4 5 6 7 8 9 10 11 12 13 14 15 16 17 18 19 20 21 22 23 24 25 26 27 28 29 30 31 32 33 34 35 36 37 38 39 40 41 42 43 44 45 46 47 48 49 50

000
ASUS43 KMPX 211701
RWRMN
WEATHER ROUNDUP FOR MINNESOTA
NATIONAL WEATHER SERVICE TWIN CITIES/CHANHASSEN MN
1200 PM CDT TUE OCT 21 2014


NOTE: "FAIR" INDICATES FEW OR NO CLOUDS BELOW 12,000 FEET WITH NO
SIGNIFICANT WEATHER AND/OR OBSTRUCTIONS TO VISIBILITY. N/A MEANS
CURRENT SKY AND/OR WEATHER CONDITIONS ARE NOT AVAILABLE.

MNZ060>063-068>070-211800-
   Twin Cities Metro

CITY           SKY/WX    TMP DP  RH WIND       PRES   REMARKS
TWIN CITIES    SUNNY     51  39  63 E15       30.20S
ST PAUL        SUNNY     51  39  63 SE10      30.21F
CRYSTAL        SUNNY     53  38  56 VRB7      30.19S
BLAINE         SUNNY     54  39  58 E13         N/A
LAKEVILLE      SUNNY     52  41  66 SE7       30.19F
EDEN PRAIRIE   SUNNY     52  40  63 E10       30.18S
SOUTH ST PAUL  SUNNY     51  38  60 SE9       30.20S
LAKE ELMO      FAIR      52  39  62 SE7       30.22S
$$
MNZ001>005-007-008-013>017-022>024-027-028-211800-
   Northwest Minnesota

CITY           SKY/WX    TMP DP  RH WIND       PRES   REMARKS
BEMIDJI        SUNNY     50  39  66 SE16G22   30.11F
HALLOCK        SUNNY     55  43  62 S20       29.98F
ROSEAU         SUNNY     54  43  66 SE14      30.05F
WARROAD        SUNNY     50  43  76 SE12G17   30.07F
THIEF RVR FALL SUNNY     54  41  62 SE20      30.03F
CROOKSTON      SUNNY     55  43  62 S20G29    30.01S
FOSSTON        SUNNY     54  39  58 SE16      30.05F
DETROIT LAKES  SUNNY     52  41  66 SE17      30.06F
MOORHEAD       SUNNY     59  43  55 SE20G31   30.00F
PARK RAPIDS    SUNNY     50  38  63 SE18      30.11F
MAHNOMEN       FAIR      53  39  60 SE15G23   30.04F
$$
MNZ006-009>011-018-025>026-211800-
   North Central Minnesota

CITY           SKY/WX    TMP DP  RH WIND       PRES   REMARKS
BAUDETTE       SUNNY     49  38  65 S13G22    30.12F
FLAG ISLAND    SUNNY     46  39  76 SE24      30.08F
INTL FALLS     CLOUDY    45  35  68 SE12      30.18F
WASKISH        SUNNY     52  41  66 SE13      30.12F
BIG FORK       PTSUNNY   46  37  71 SE12      30.18F
LONGVILLE      SUNNY     50  39  66 SE9       30.15F
GRAND RAPIDS   PTSUNNY   46  36  66 SE13      30.19S
CRANE LAKE     CLOUDY    41  34  75 SE5       30.24F
ORR            CLOUDY    43  32  65 SE9       30.19S
COOK           CLOUDY    41  36  81 SE14      30.22F
WALKER         FAIR      48  38  68 SE7       30.13F
$$
MNZ012-019>021-037-211800-
   Northeast Minnesota

CITY           SKY/WX    TMP DP  RH WIND       PRES   REMARKS
DULUTH         CLOUDY    43  34  70 E14       30.24R
ELY            CLOUDY    39  34  81 SE12      30.25S
HIBBING        CLOUDY    44  35  70 SE10      30.22S
EVELETH        CLOUDY    43  34  70 SE10      30.23F
DULUTH HARBOR  CLOUDY    46  37  71 E10       30.27S
TWO HARBORS    CLOUDY    45  27  49 E9        30.25S
SILVER BAY     CLOUDY    43  36  75 E7        30.25S
GRAND MARAIS     N/A     42  33  70 E9        30.31R
G MARAIS ARPRT CLOUDY    36  28  75 E3        30.27S
$$
MNZ029>031-032-039>041-046>048-054>057-064-211800-
   West Central Minnesota

CITY           SKY/WX    TMP DP  RH WIND       PRES   REMARKS
FERGUS FALLS   SUNNY     57  37  47 SE22      30.06S
WHEATON        SUNNY     57  41  54 SE24      30.03F
MORRIS         SUNNY     57  43  58 SE21G28   30.05F
ALEXANDRIA     SUNNY     53  41  63 SE15      30.11F
ELBOW LAKE     FAIR      56  42  59 SE22      30.06S
WADENA         SUNNY     52  39  62 SE17      30.10F
GLENWOOD       SUNNY     55  43  62 SE15      30.11S
APPLETON       SUNNY     61  41  48 SE16G24   30.05F
BENSON         SUNNY     57  43  58 S14       30.09F
ORTONVILLE     SUNNY     57  41  54 SE15G23   30.03F
MADISON        SUNNY     63  43  48 SE17      30.05F
WILLMAR        FAIR      57  41  54 SE15      30.13S
$$
MNZ033>034-036-042>043-049>051-058-059-211800-
   Central Minnesota

CITY           SKY/WX    TMP DP  RH WIND       PRES   REMARKS
ST CLOUD       SUNNY     55  39  54 SE10      30.17S
SAUK CENTRE    FAIR      54  41  61 SE14      30.13S
PAYNESVILLE    SUNNY     51  40  65 E14       30.14S
AITKIN         SUNNY     54  39  58 E9        30.17S
PINE RIVER     MOSUNNY   50  39  66 SE12      30.18S
BRAINERD       SUNNY     49  38  65 S12       30.17S
STAPLES        SUNNY     50  37  62 SE10G18   30.13S
LONG PRAIRIE   FAIR      52  39  62 E15       30.13F
LITTLE FALLS   SUNNY     50  37  62 SE13G18   30.16F
LITCHFIELD     SUNNY     55  45  67 SE13      30.15F
BUFFALO        SUNNY     52  38  60 E10       30.19S
MAPLE LAKE     SUNNY     54  42  65 SE8       30.18S
$$
MNZ037-044-045-052-053-211800-
   East Central Minnesota

CITY           SKY/WX    TMP DP  RH WIND       PRES   REMARKS
PRINCETON      SUNNY     54  39  58 E8        30.19S
MORA           SUNNY     50  37  62 SE9       30.22S
CAMBRIDGE      SUNNY     54  39  58 E7        30.19S
RUSH CITY      MOSUNNY   51  38  62 CALM      30.21F
MOOSE LAKE     MOSUNNY   48  36  61 E6        30.21S
HINCKLEY       FAIR      50  37  62 E6        30.22S
CLOQUET        CLOUDY    43  34  70 E9        30.23S
MCGREGOR       MOSUNNY   46  37  71 E10       30.21S
$$
MNZ071>073-080-081-089-090-097-098-211800-
   Southwest Minnesota

CITY           SKY/WX    TMP DP  RH WIND       PRES   REMARKS
MONTEVIDEO     SUNNY     61  43  51 S15G22    30.09F
GRANITE FALLS  SUNNY     58  42  54 SE15      30.10F
CANBY          SUNNY     62  43  49 SE15      30.05F
MARSHALL       SUNNY     64  39  39 SE18      30.06F
REDWOOD FALLS  SUNNY     59  42  53 SE14      30.12S
OLIVIA         SUNNY     57  41  54 SE14      30.12S
PIPESTONE      SUNNY     64  39  39 S14G20    30.06F
WINDOM         SUNNY     61  39  44 SE14      30.12S
WORTHINGTON    SUNNY     63  39  42 S9        30.11F
JACKSON        SUNNY     61  37  41 S13       30.13S
TRACY          SUNNY     63  42  46 SE15G21   30.09F
SLAYTON        SUNNY     64  38  39 SE14      30.10S
$$
MNZ065>067-074>077-082>085-091>093-211800-
   South Central Minnesota

CITY           SKY/WX    TMP DP  RH WIND       PRES   REMARKS
MANKATO        SUNNY     55  39  54 SE13      30.16F
NEW ULM        SUNNY     55  43  62 SE10      30.13F
ST JAMES       SUNNY     61  43  51 SE9       30.14F
FAIRMONT       SUNNY     57  41  54 SE12      30.14F
GLENCOE        SUNNY     56  44  63 SE10      30.16S
FARIBAULT      SUNNY     55  43  62 E9        30.18F
OWATONNA       SUNNY     55  41  58 SE7       30.18F
WASECA         SUNNY     55  37  50 SE9       30.18F
ALBERT LEA     SUNNY     55  43  62 SE9       30.17F
$$
MNZ078>079-086>088-094>096-211800-
   Southeast Minnesota

CITY           SKY/WX    TMP DP  RH WIND       PRES   REMARKS
ROCHESTER      SUNNY     51  41  68 SE10      30.21F
RED WING       SUNNY     52  37  58 SE9       30.21S
STANTON        SUNNY     53  41  63 E8        30.18F
DODGE CENTER   SUNNY     54  41  62 SE10      30.19S
WINONA         SUNNY     50  37  62 SE8       30.24S
AUSTIN         SUNNY     54  43  66 SE10      30.18S
PRESTON        SUNNY     49  39  69 E8        30.21F
$$
ABBREVIATIONS USED IN REMARKS
   TC - TEMPERATURES IN CELSIUS
  WCI - WIND CHILL INDEX
   HX - HEAT INDEX
  VSB - VISIBILITY
$$



USA.gov is the U.S. government's official web portal to all federal, state and local government web resources and services.